User: anonymous   Login
Location: Unspecified
(0.0000°N, 0.0000°E)
Time: 04:30:31
(UTC+00:00)
Language:

Nimbus 7 - Orbit

View from above orbital plane
View from above orbital plane
View from above satellite
View from above satellite

Ground track
Ground track

The orbit data is extracted from the following two-line orbital elements,

1 11080U 78098A   18292.40512987 -.00000043 +00000-0 +28802-5 0  9993
2 11080 099.5489 075.2310 0009734 099.5258 260.6997 13.84299581019587
Epoch (UTC): 19 October 2018 09:43:23
Eccentricity: 0.0009734
inclination: 99.5489°
perigee height: 941 km
apogee height: 956 km
right ascension of ascending node: 75.2310°
argument of perigee: 99.5258°
revolutions per day: 13.84299581
mean anomaly at epoch: 260.6997°
orbit number at epoch: 1958

The dashed part of the orbit path shows where the satellite is in the earth's shadow,  

DLR